| time (UTC) | temp F | wind direction | speed MPH | gust MPH | rain 1hr in | rain 24hr in | rain mn in | humidity % | barometer mb |
| 20260510023138 | 46 | 212 | 3.0 | 7.0 | 0.00 | 0.01 | 0.01 | 98 | 1006.1 |
| 20260510022638 | 46 | 202 | 2.0 | 7.0 | 0.00 | 0.01 | 0.01 | 98 | 1006.2 |
| 20260510022138 | 46 | 174 | 2.0 | 8.0 | 0.00 | 0.01 | 0.01 | 98 | 1006.2 |
| 20260510021638 | 46 | 180 | 3.0 | 9.0 | 0.00 | 0.01 | 0.01 | 98 | 1006.2 |
| 20260510021136 | 46 | 168 | 3.0 | 9.0 | 0.00 | 0.01 | 0.01 | 98 | 1006.5 |
| 20260510020633 | 46 | 161 | 2.0 | 6.0 | 0.00 | 0.01 | 0.01 | 98 | 1006.4 |
| 20260510020134 | 45 | 166 | 2.0 | 6.0 | 0.00 | 0.01 | 0.01 | 98 | 1006.4 |
| 20260510015629 | 45 | 192 | 1.0 | 3.0 | 0.00 | 0.01 | 0.01 | 98 | 1006.5 |
| 20260510015122 | 45 | 195 | 1.0 | 3.0 | 0.00 | 0.01 | 0.01 | 98 | 1006.5 |
| 20260510014612 | 45 | 194 | 0.0 | 2.0 | 0.00 | 0.01 | 0.01 | 98 | 1006.5 |
| 20260510014106 | 45 | 194 | 0.0 | 2.0 | 0.00 | 0.01 | 0.01 | 98 | 1006.2 |
| 20260510013559 | 45 | 194 | 0.0 | 2.0 | 0.00 | 0.01 | 0.01 | 97 | 1006.2 |
| 20260510013054 | 45 | 194 | 0.0 | 2.0 | 0.00 | 0.01 | 0.01 | 97 | 1006.2 |
| 20260510012552 | 45 | 194 | 1.0 | 2.0 | 0.00 | 0.01 | 0.01 | 97 | 1006.4 |
| 20260510012052 | 45 | 194 | 0.0 | 2.0 | 0.00 | 0.01 | 0.01 | 97 | 1006.4 |
| 20260510011552 | 45 | 194 | 0.0 | 2.0 | 0.00 | 0.01 | 0.01 | 97 | 1006.4 |
| 20260510011052 | 45 | 194 | 0.0 | 1.0 | 0.00 | 0.01 | 0.01 | 97 | 1006.5 |
| 20260510010550 | 45 | 194 | 0.0 | 1.0 | 0.00 | 0.01 | 0.01 | 98 | 1006.2 |
| 20260510010050 | 45 | 194 | 0.0 | 1.0 | 0.00 | 0.01 | 0.01 | 97 | 1006.2 |
| 20260510005550 | 45 | 194 | 0.0 | 1.0 | 0.00 | 0.01 | 0.01 | 98 | 1006.2 |
| 20260510005050 | 45 | 194 | 0.0 | 2.0 | 0.00 | 0.01 | 0.01 | 97 | 1006.4 |
| 20260510004551 | 45 | 194 | 0.0 | 2.0 | 0.00 | 0.01 | 0.01 | 97 | 1006.4 |
| 20260510004049 | 45 | 194 | 1.0 | 3.0 | 0.00 | 0.01 | 0.01 | 97 | 1006.2 |
| 20260510003549 | 45 | 194 | 1.0 | 3.0 | 0.00 | 0.01 | 0.01 | 97 | 1006.1 |
| 20260510002542 | 45 | 198 | 0.0 | 2.0 | 0.00 | 0.01 | 0.01 | 97 | 1006.2 |
| 20260510002043 | 45 | 198 | 1.0 | 3.0 | 0.00 | 0.01 | 0.01 | 97 | 1006.4 |
| 20260510001543 | 45 | 198 | 1.0 | 3.0 | 0.00 | 0.01 | 0.01 | 97 | 1006.4 |
| 20260510001040 | 45 | 199 | 1.0 | 3.0 | 0.00 | 0.01 | 0.01 | 97 | 1006.5 |
| 20260510000541 | 45 | 199 | 1.0 | 2.0 | 0.00 | 0.01 | 0.01 | 97 | 1006.5 |
| 20260510000305 | 45 | 199 | 1.0 | 3.0 | 0.00 | 0.01 | 0.01 | 97 | 1006.5 |
| 20260509235803 | 45 | 199 | 1.0 | 3.0 | 0.00 | 0.01 | 0.01 | 97 | 1006.4 |
| 20260509235041 | 45 | 199 | 1.0 | 2.0 | 0.00 | 0.01 | 0.01 | 97 | 1006.4 |
| 20260509234541 | 45 | 199 | 1.0 | 2.0 | 0.00 | 0.01 | 0.01 | 97 | 1006.2 |
| 20260509234040 | 45 | 199 | 0.0 | 3.0 | 0.00 | 0.01 | 0.01 | 97 | 1006.1 |
| 20260509233539 | 45 | 199 | 0.0 | 3.0 | 0.00 | 0.01 | 0.01 | 97 | 1006.1 |
| 20260509233039 | 45 | 199 | 0.0 | 4.0 | 0.00 | 0.01 | 0.01 | 97 | 1006.0 |
| 20260509232539 | 45 | 199 | 0.0 | 4.0 | 0.00 | 0.01 | 0.01 | 97 | 1006.0 |
| 20260509232039 | 45 | 199 | 0.0 | 1.0 | 0.00 | 0.01 | 0.01 | 97 | 1005.9 |
| 20260509231539 | 45 | 199 | 0.0 | 2.0 | 0.00 | 0.01 | 0.01 | 97 | 1006.0 |
| 20260509231040 | 45 | 199 | 1.0 | 2.0 | 0.00 | 0.01 | 0.01 | 97 | 1006.0 |
| 20260509230539 | 45 | 199 | 1.0 | 2.0 | 0.00 | 0.01 | 0.01 | 97 | 1006.0 |
| 20260509230040 | 45 | 199 | 0.0 | 1.0 | 0.00 | 0.01 | 0.01 | 97 | 1006.0 |
| 20260509225539 | 45 | 199 | 0.0 | 1.0 | 0.00 | 0.01 | 0.01 | 97 | 1006.0 |
| 20260509225039 | 45 | 199 | 1.0 | 3.0 | 0.00 | 0.01 | 0.01 | 97 | 1006.0 |
| 20260509224806 | 45 | 199 | 2.0 | 5.0 | 0.01 | 0.01 | 0.01 | 97 | 1006.0 |
| 20260509224039 | 45 | 199 | 2.0 | 5.0 | 0.01 | 0.01 | 0.01 | 97 | 1005.9 |
| 20260509223540 | 45 | 209 | 2.0 | 9.0 | 0.01 | 0.01 | 0.01 | 97 | 1005.9 |
| 20260509223041 | 45 | 188 | 2.0 | 9.0 | 0.01 | 0.01 | 0.01 | 97 | 1005.9 |
| 20260509222539 | 45 | 194 | 1.0 | 4.0 | 0.01 | 0.01 | 0.01 | 97 | 1006.0 |
| 20260509222037 | 45 | 157 | 1.0 | 5.0 | 0.01 | 0.01 | 0.01 | 97 | 1006.0 |
| 20260509221536 | 45 | 150 | 2.0 | 6.0 | 0.01 | 0.01 | 0.01 | 97 | 1006.0 |
| 20260509221035 | 44 | 166 | 2.0 | 6.0 | 0.01 | 0.01 | 0.01 | 97 | 1006.2 |
| 20260509220535 | 44 | 191 | 1.0 | 4.0 | 0.01 | 0.01 | 0.01 | 97 | 1006.1 |
| 20260509220034 | 44 | 190 | 2.0 | 4.0 | 0.01 | 0.01 | 0.01 | 97 | 1006.2 |
| 20260509215759 | 44 | 190 | 2.0 | 3.0 | 0.01 | 0.01 | 0.01 | 97 | 1006.4 |
| 20260509215034 | 44 | 192 | 1.0 | 3.0 | 0.01 | 0.01 | 0.01 | 97 | 1006.5 |
| 20260509214531 | 44 | 174 | 0.0 | 2.0 | 0.00 | 0.00 | 0.00 | 97 | 1006.5 |
| 20260509214031 | 44 | 174 | 0.0 | 2.0 | 0.00 | 0.00 | 0.00 | 97 | 1006.5 |
| 20260509213800 | 44 | 174 | 0.0 | 3.0 | 0.00 | 0.00 | 0.00 | 97 | 1006.5 |
| 20260509213029 | 44 | 174 | 1.0 | 3.0 | 0.00 | 0.00 | 0.00 | 97 | 1006.6 |
| 20260509212530 | 44 | 173 | 1.0 | 5.0 | 0.00 | 0.00 | 0.00 | 97 | 1006.6 |
| 20260509211518 | 44 | 153 | 1.0 | 4.0 | 0.00 | 0.00 | 0.00 | 96 | 1006.7 |
| 20260509211008 | 44 | 144 | 1.0 | 7.0 | 0.00 | 0.00 | 0.00 | 96 | 1006.7 |
| 20260509210502 | 44 | 144 | 1.0 | 7.0 | 0.00 | 0.00 | 0.00 | 96 | 1006.8 |
| 20260509205956 | 44 | 173 | 1.0 | 3.0 | 0.00 | 0.00 | 0.00 | 96 | 1006.8 |
| 20260509205447 | 44 | 173 | 0.0 | 3.0 | 0.00 | 0.00 | 0.00 | 96 | 1006.8 |
| 20260509204940 | 44 | 173 | 0.0 | 2.0 | 0.00 | 0.00 | 0.00 | 96 | 1006.8 |
| 20260509204434 | 44 | 173 | 0.0 | 3.0 | 0.00 | 0.00 | 0.00 | 96 | 1006.7 |
| 20260509204148 | 44 | 173 | 1.0 | 3.0 | 0.00 | 0.00 | 0.00 | 96 | 1006.8 |
| 20260509203418 | 44 | 174 | 1.0 | 3.0 | 0.00 | 0.00 | 0.00 | 96 | 1006.8 |
| 20260509202912 | 44 | 171 | 1.0 | 4.0 | 0.00 | 0.00 | 0.00 | 96 | 1006.8 |
| 20260509202402 | 44 | 171 | 1.0 | 4.0 | 0.00 | 0.00 | 0.00 | 96 | 1006.9 |
| 20260509201856 | 44 | 153 | 1.0 | 6.0 | 0.00 | 0.00 | 0.00 | 96 | 1006.9 |
| 20260509201350 | 44 | 153 | 1.0 | 6.0 | 0.00 | 0.00 | 0.00 | 96 | 1006.9 |
| 20260509200840 | 44 | 156 | 1.0 | 4.0 | 0.00 | 0.00 | 0.00 | 96 | 1007.0 |
| 20260509200333 | 44 | 141 | 2.0 | 4.0 | 0.00 | 0.00 | 0.00 | 95 | 1007.0 |
| 20260509195828 | 44 | 133 | 1.0 | 3.0 | 0.00 | 0.00 | 0.00 | 95 | 1007.1 |
| 20260509195542 | 44 | 131 | 2.0 | 5.0 | 0.00 | 0.00 | 0.00 | 95 | 1007.3 |
| 20260509194812 | 44 | 186 | 2.0 | 8.0 | 0.00 | 0.00 | 0.00 | 95 | 1007.2 |
| 20260509194306 | 44 | 177 | 2.0 | 8.0 | 0.00 | 0.00 | 0.00 | 95 | 1007.3 |
| 20260509193755 | 44 | 140 | 3.0 | 7.0 | 0.00 | 0.00 | 0.00 | 95 | 1007.2 |
| 20260509193250 | 44 | 217 | 3.0 | 7.0 | 0.00 | 0.00 | 0.00 | 95 | 1007.3 |
| 20260509192744 | 44 | 198 | 2.0 | 6.0 | 0.00 | 0.00 | 0.00 | 95 | 1007.3 |
| 20260509192234 | 44 | 161 | 2.0 | 5.0 | 0.00 | 0.00 | 0.00 | 95 | 1007.2 |
| 20260509191728 | 44 | 170 | 1.0 | 5.0 | 0.00 | 0.00 | 0.00 | 95 | 1007.2 |
| 20260509191222 | 44 | 147 | 1.0 | 8.0 | 0.00 | 0.00 | 0.00 | 95 | 1007.2 |
| 20260509190936 | 44 | 149 | 1.0 | 8.0 | 0.00 | 0.00 | 0.00 | 94 | 1007.3 |
| 20260509190206 | 44 | 153 | 2.0 | 5.0 | 0.00 | 0.00 | 0.00 | 94 | 1007.4 |
| 20260509185700 | 44 | 178 | 2.0 | 5.0 | 0.00 | 0.00 | 0.00 | 94 | 1007.5 |
| 20260509185150 | 44 | 133 | 2.0 | 4.0 | 0.00 | 0.00 | 0.00 | 94 | 1007.4 |
| 20260509184644 | 44 | 132 | 1.0 | 4.0 | 0.00 | 0.00 | 0.00 | 94 | 1007.5 |
| 20260509184138 | 44 | 144 | 2.0 | 4.0 | 0.00 | 0.00 | 0.00 | 94 | 1007.6 |
| 20260509183628 | 44 | 143 | 1.0 | 5.0 | 0.00 | 0.00 | 0.00 | 93 | 1007.6 |
| 20260509183122 | 44 | 155 | 2.0 | 5.0 | 0.00 | 0.00 | 0.00 | 93 | 1007.6 |
| 20260509182846 | 44 | 151 | 2.0 | 6.0 | 0.00 | 0.00 | 0.00 | 93 | 1007.6 |
| 20260509182106 | 44 | 155 | 2.0 | 8.0 | 0.00 | 0.00 | 0.00 | 92 | 1007.6 |
| 20260509181600 | 44 | 128 | 1.0 | 8.0 | 0.00 | 0.00 | 0.00 | 93 | 1007.6 |
| 20260509181054 | 44 | 136 | 1.0 | 6.0 | 0.00 | 0.00 | 0.00 | 93 | 1007.6 |
| 20260509180547 | 44 | 136 | 1.0 | 6.0 | 0.00 | 0.00 | 0.00 | 92 | 1007.7 |
| 20260509180038 | 44 | 113 | 1.0 | 4.0 | 0.00 | 0.00 | 0.00 | 92 | 1007.7 |
| 20260509175532 | 43 | 111 | 1.0 | 4.0 | 0.00 | 0.00 | 0.00 | 93 | 1007.7 |
| 20260509175249 | 43 | 142 | 1.0 | 3.0 | 0.00 | 0.00 | 0.00 | 92 | 1007.8 |
| 20260509174516 | 43 | 141 | 1.0 | 3.0 | 0.00 | 0.00 | 0.00 | 93 | 1007.8 |
| 20260509174010 | 43 | 141 | 1.0 | 3.0 | 0.00 | 0.00 | 0.00 | 92 | 1007.9 |
| 20260509173500 | 43 | 140 | 1.0 | 3.0 | 0.00 | 0.00 | 0.00 | 92 | 1007.9 |
| 20260509172954 | 43 | 140 | 0.0 | 3.0 | 0.00 | 0.00 | 0.00 | 92 | 1007.9 |
| 20260509172448 | 42 | 140 | 0.0 | 2.0 | 0.00 | 0.00 | 0.00 | 91 | 1008.0 |
| 20260509171938 | 42 | 140 | 1.0 | 3.0 | 0.00 | 0.00 | 0.00 | 91 | 1008.0 |
| 20260509171431 | 42 | 140 | 1.0 | 4.0 | 0.00 | 0.00 | 0.00 | 90 | 1008.1 |
| 20260509170926 | 43 | 140 | 1.0 | 4.0 | 0.00 | 0.00 | 0.00 | 90 | 1008.1 |
| 20260509170415 | 42 | 143 | 1.0 | 3.0 | 0.00 | 0.00 | 0.00 | 90 | 1008.2 |
| 20260509165910 | 43 | 143 | 1.0 | 3.0 | 0.00 | 0.00 | 0.00 | 90 | 1008.4 |
| 20260509165404 | 42 | 143 | 1.0 | 3.0 | 0.00 | 0.00 | 0.00 | 90 | 1008.4 |
| 20260509164348 | 43 | 148 | 1.0 | 3.0 | 0.00 | 0.00 | 0.00 | 90 | 1008.4 |
| 20260509163843 | 43 | 145 | 1.0 | 4.0 | 0.00 | 0.00 | 0.00 | 90 | 1008.5 |
| 20260509163332 | 43 | 126 | 2.0 | 6.0 | 0.00 | 0.00 | 0.00 | 89 | 1008.6 |
| 20260509162541 | 43 | 157 | 2.0 | 5.0 | 0.00 | 0.00 | 0.00 | 89 | 1008.7 |
| 20260509161810 | 43 | 157 | 2.0 | 5.0 | 0.00 | 0.00 | 0.00 | 88 | 1008.8 |
| 20260509161304 | 43 | 157 | 1.0 | 6.0 | 0.00 | 0.00 | 0.00 | 87 | 1008.9 |
| 20260509160803 | 43 | 159 | 2.0 | 6.0 | 0.00 | 0.00 | 0.00 | 88 | 1008.9 |
| 20260509160529 | 43 | 126 | 2.0 | 7.0 | 0.00 | 0.00 | 0.00 | 86 | 1008.9 |
| 20260509160032 | 44 | 144 | 2.0 | 7.0 | 0.00 | 0.00 | 0.00 | 85 | 1009.0 |
| 20260509155532 | 44 | 142 | 3.0 | 8.0 | 0.00 | 0.00 | 0.00 | 85 | 1009.0 |
| 20260509154801 | 44 | 141 | 2.0 | 8.0 | 0.00 | 0.00 | 0.00 | 84 | 1009.0 |
| 20260509154301 | 44 | 137 | 2.0 | 5.0 | 0.00 | 0.00 | 0.00 | 85 | 1008.9 |
| 20260509153301 | 44 | 130 | 2.0 | 7.0 | 0.00 | 0.00 | 0.00 | 82 | 1009.1 |
| 20260509152803 | 44 | 124 | 1.0 | 6.0 | 0.00 | 0.00 | 0.00 | 81 | 1009.1 |
| 20260509152528 | 44 | 148 | 1.0 | 6.0 | 0.00 | 0.00 | 0.00 | 79 | 1009.2 |
| 20260509151759 | 44 | 126 | 1.0 | 5.0 | 0.00 | 0.00 | 0.00 | 79 | 1009.2 |
| 20260509151259 | 44 | 144 | 1.0 | 5.0 | 0.00 | 0.00 | 0.00 | 78 | 1009.3 |
| 20260509150800 | 45 | 134 | 2.0 | 7.0 | 0.00 | 0.00 | 0.00 | 77 | 1009.3 |
| 20260509150259 | 45 | 134 | 2.0 | 7.0 | 0.00 | 0.00 | 0.00 | 77 | 1009.3 |
| 20260509145753 | 45 | 162 | 1.0 | 7.0 | 0.00 | 0.00 | 0.00 | 77 | 1009.3 |
| 20260509144457 | 46 | 184 | 2.0 | 8.0 | 0.00 | 0.00 | 0.00 | 75 | 1009.3 |
| 20260509143734 | 46 | 165 | 2.0 | 5.0 | 0.00 | 0.00 | 0.00 | 75 | 1009.3 |
| 20260509143233 | 46 | 155 | 2.0 | 5.0 | 0.00 | 0.00 | 0.00 | 75 | 1009.3 |
| 20260509142733 | 46 | 172 | 2.0 | 6.0 | 0.00 | 0.00 | 0.00 | 75 | 1009.3 |
| 20260509142233 | 46 | 194 | 2.0 | 9.0 | 0.00 | 0.00 | 0.00 | 74 | 1009.4 |
| 20260509141733 | 46 | 105 | 2.0 | 9.0 | 0.00 | 0.00 | 0.00 | 73 | 1009.5 |
| 20260509141231 | 46 | 219 | 2.0 | 5.0 | 0.00 | 0.00 | 0.00 | 72 | 1009.4 |
| 20260509140730 | 46 | 212 | 3.0 | 7.0 | 0.00 | 0.00 | 0.00 | 72 | 1009.4 |
| 20260509140231 | 46 | 143 | 3.0 | 7.0 | 0.00 | 0.00 | 0.00 | 70 | 1009.4 |
| 20260509135731 | 46 | 225 | 3.0 | 7.0 | 0.00 | 0.00 | 0.00 | 71 | 1009.2 |
| 20260509135231 | 46 | 154 | 2.0 | 7.0 | 0.00 | 0.00 | 0.00 | 71 | 1009.3 |
| 20260509134727 | 46 | 184 | 2.0 | 7.0 | 0.00 | 0.00 | 0.00 | 70 | 1009.3 |
| 20260509134227 | 46 | 151 | 3.0 | 8.0 | 0.00 | 0.00 | 0.00 | 69 | 1009.2 |
| 20260509133726 | 46 | 179 | 3.0 | 8.0 | 0.00 | 0.00 | 0.00 | 68 | 1009.3 |
| 20260509133226 | 46 | 182 | 2.0 | 8.0 | 0.00 | 0.00 | 0.00 | 68 | 1009.2 |
| 20260509132727 | 46 | 158 | 2.0 | 7.0 | 0.00 | 0.00 | 0.00 | 67 | 1009.3 |
| 20260509132451 | 46 | 174 | 3.0 | 6.0 | 0.00 | 0.00 | 0.00 | 66 | 1009.3 |
| 20260509131726 | 46 | 149 | 3.0 | 7.0 | 0.00 | 0.00 | 0.00 | 66 | 1009.3 |
| 20260509131227 | 46 | 217 | 3.0 | 11.0 | 0.00 | 0.00 | 0.00 | 66 | 1009.4 |
| 20260509130727 | 46 | 214 | 4.0 | 11.0 | 0.00 | 0.00 | 0.00 | 65 | 1009.5 |
| 20260509130227 | 46 | 198 | 4.0 | 9.0 | 0.00 | 0.00 | 0.00 | 65 | 1009.5 |
| 20260509125726 | 46 | 202 | 4.0 | 11.0 | 0.00 | 0.00 | 0.00 | 65 | 1009.5 |
| 20260509125226 | 46 | 198 | 4.0 | 11.0 | 0.00 | 0.00 | 0.00 | 63 | 1009.5 |
| 20260509124726 | 46 | 275 | 4.0 | 10.0 | 0.00 | 0.00 | 0.00 | 62 | 1009.5 |
| 20260509124227 | 45 | 188 | 4.0 | 10.0 | 0.00 | 0.00 | 0.00 | 62 | 1009.5 |
| 20260509123726 | 45 | 150 | 3.0 | 7.0 | 0.00 | 0.00 | 0.00 | 63 | 1009.5 |
| 20260509123227 | 45 | 195 | 2.0 | 4.0 | 0.00 | 0.00 | 0.00 | 62 | 1009.6 |
| 20260509122728 | 44 | 202 | 2.0 | 6.0 | 0.00 | 0.00 | 0.00 | 65 | 1009.6 |
| 20260509122221 | 44 | 201 | 2.0 | 6.0 | 0.00 | 0.00 | 0.00 | 63 | 1009.6 |
| 20260509121715 | 43 | 211 | 2.0 | 7.0 | 0.00 | 0.00 | 0.00 | 62 | 1009.6 |
| 20260509121205 | 43 | 213 | 2.0 | 7.0 | 0.00 | 0.00 | 0.00 | 66 | 1009.5 |
| 20260509120922 | 42 | 173 | 2.0 | 6.0 | 0.00 | 0.00 | 0.00 | 65 | 1009.6 |
| 20260509120154 | 42 | 179 | 2.0 | 6.0 | 0.00 | 0.00 | 0.00 | 65 | 1009.7 |
| 20260509115643 | 42 | 192 | 2.0 | 6.0 | 0.00 | 0.00 | 0.00 | 66 | 1009.7 |
| 20260509115138 | 41 | 204 | 1.0 | 4.0 | 0.00 | 0.00 | 0.00 | 63 | 1009.8 |
| 20260509114631 | 41 | 267 | 2.0 | 4.0 | 0.00 | 0.00 | 0.00 | 65 | 1009.8 |
| 20260509114121 | 40 | 267 | 2.0 | 4.0 | 0.00 | 0.00 | 0.00 | 69 | 1009.8 |
| 20260509113615 | 40 | 271 | 1.0 | 4.0 | 0.00 | 0.00 | 0.00 | 71 | 1009.8 |
| 20260509113109 | 40 | 303 | 1.0 | 3.0 | 0.00 | 0.00 | 0.00 | 67 | 1009.8 |
| 20260509112559 | 39 | 304 | 1.0 | 2.0 | 0.00 | 0.00 | 0.00 | 70 | 1009.7 |
| 20260509112053 | 38 | 346 | 0.0 | 2.0 | 0.00 | 0.00 | 0.00 | 74 | 1009.7 |
| 20260509111547 | 36 | 347 | 0.0 | 2.0 | 0.00 | 0.00 | 0.00 | 76 | 1009.7 |
| 20260509111038 | 35 | 347 | 0.0 | 2.0 | 0.00 | 0.00 | 0.00 | 79 | 1009.7 |
| 20260509110531 | 34 | 347 | 0.0 | 2.0 | 0.00 | 0.00 | 0.00 | 81 | 1009.7 |
| 20260509110024 | 33 | 347 | 1.0 | 3.0 | 0.00 | 0.00 | 0.00 | 83 | 1009.6 |
| 20260509105515 | 32 | 347 | 1.0 | 3.0 | 0.00 | 0.00 | 0.00 | 86 | 1009.5 |
| 20260509105009 | 31 | 347 | 1.0 | 2.0 | 0.00 | 0.00 | 0.00 | 86 | 1009.6 |
| 20260509104502 | 31 | 347 | 0.0 | 2.0 | 0.00 | 0.00 | 0.00 | 86 | 1009.6 |
| 20260509103956 | 31 | 347 | 0.0 | 2.0 | 0.00 | 0.00 | 0.00 | 85 | 1009.6 |
| 20260509103447 | 30 | 347 | 1.0 | 2.0 | 0.00 | 0.00 | 0.00 | 87 | 1009.4 |
| 20260509102942 | 29 | 347 | 1.0 | 2.0 | 0.00 | 0.00 | 0.00 | 88 | 1009.4 |
| 20260509102649 | 29 | 347 | 1.0 | 2.0 | 0.00 | 0.00 | 0.00 | 88 | 1009.4 |
| 20260509101925 | 29 | 347 | 1.0 | 2.0 | 0.00 | 0.00 | 0.00 | 88 | 1009.5 |
| 20260509101419 | 29 | 347 | 1.0 | 2.0 | 0.00 | 0.00 | 0.00 | 88 | 1009.5 |
| 20260509100914 | 29 | 347 | 0.0 | 1.0 | 0.00 | 0.00 | 0.00 | 89 | 1009.4 |
| 20260509100412 | 28 | 347 | 0.0 | 0.0 | 0.00 | 0.00 | 0.00 | 89 | 1009.4 |
| 20260509095910 | 28 | 347 | 0.0 | 1.0 | 0.00 | 0.00 | 0.00 | 90 | 1009.3 |
| 20260509095411 | 28 | 347 | 1.0 | 3.0 | 0.00 | 0.00 | 0.00 | 89 | 1009.4 |
| 20260509094910 | 28 | 347 | 1.0 | 3.0 | 0.00 | 0.00 | 0.00 | 89 | 1009.5 |
| 20260509093911 | 28 | 347 | 0.0 | 2.0 | 0.00 | 0.00 | 0.00 | 89 | 1009.3 |
| 20260509093409 | 28 | 347 | 1.0 | 2.0 | 0.00 | 0.00 | 0.00 | 89 | 1009.3 |
| 20260509092909 | 28 | 347 | 1.0 | 2.0 | 0.00 | 0.00 | 0.00 | 88 | 1009.4 |
| 20260509092410 | 28 | 347 | 0.0 | 2.0 | 0.00 | 0.00 | 0.00 | 88 | 1009.4 |
| 20260509091908 | 28 | 347 | 0.0 | 1.0 | 0.00 | 0.00 | 0.00 | 88 | 1009.3 |
| 20260509091408 | 28 | 347 | 1.0 | 1.0 | 0.00 | 0.00 | 0.00 | 87 | 1009.3 |
| 20260509090906 | 28 | 347 | 1.0 | 1.0 | 0.00 | 0.00 | 0.00 | 87 | 1009.3 |
| 20260509090404 | 29 | 347 | 1.0 | 2.0 | 0.00 | 0.00 | 0.00 | 86 | 1009.3 |
| 20260509085902 | 29 | 347 | 1.0 | 2.0 | 0.00 | 0.00 | 0.00 | 86 | 1009.2 |
| 20260509085401 | 29 | 347 | 0.0 | 1.0 | 0.00 | 0.00 | 0.00 | 85 | 1009.2 |
| 20260509084853 | 29 | 347 | 0.0 | 1.0 | 0.00 | 0.00 | 0.00 | 84 | 1009.3 |
| 20260509084347 | 30 | 347 | 0.0 | 4.0 | 0.00 | 0.00 | 0.00 | 83 | 1009.2 |
| 20260509083844 | 31 | 347 | 1.0 | 4.0 | 0.00 | 0.00 | 0.00 | 82 | 1009.2 |
| 20260509083342 | 31 | 347 | 2.0 | 5.0 | 0.00 | 0.00 | 0.00 | 81 | 1009.2 |
| 20260509083101 | 32 | 347 | 2.0 | 5.0 | 0.00 | 0.00 | 0.00 | 80 | 1009.2 |
| 20260509082605 | 32 | 338 | 3.0 | 5.0 | 0.00 | 0.00 | 0.00 | 80 | 1009.1 |
| 20260509081841 | 31 | 0 | 2.0 | 5.0 | 0.00 | 0.00 | 0.00 | 82 | 1009.2 |
| 20260509081338 | 31 | 343 | 2.0 | 3.0 | 0.00 | 0.00 | 0.00 | 82 | 1009.2 |
| 20260509080837 | 31 | 343 | 2.0 | 3.0 | 0.00 | 0.00 | 0.00 | 82 | 1009.2 |
| 20260509080336 | 31 | 343 | 2.0 | 5.0 | 0.00 | 0.00 | 0.00 | 81 | 1009.2 |
| 20260509075836 | 31 | 343 | 2.0 | 5.0 | 0.00 | 0.00 | 0.00 | 80 | 1009.2 |
| 20260509075336 | 32 | 347 | 2.0 | 3.0 | 0.00 | 0.00 | 0.00 | 80 | 1009.2 |
| 20260509074836 | 32 | 346 | 2.0 | 4.0 | 0.00 | 0.00 | 0.00 | 80 | 1009.2 |
| 20260509074335 | 32 | 348 | 2.0 | 4.0 | 0.00 | 0.00 | 0.00 | 80 | 1009.2 |
| 20260509073833 | 31 | 338 | 3.0 | 4.0 | 0.00 | 0.00 | 0.00 | 80 | 1009.3 |
| 20260509073329 | 31 | 333 | 3.0 | 4.0 | 0.00 | 0.00 | 0.00 | 81 | 1009.3 |
| 20260509072830 | 31 | 329 | 2.0 | 4.0 | 0.00 | 0.00 | 0.00 | 81 | 1009.3 |
| 20260509072330 | 31 | 329 | 3.0 | 5.0 | 0.00 | 0.00 | 0.00 | 81 | 1009.3 |
| 20260509071825 | 31 | 317 | 2.0 | 5.0 | 0.00 | 0.00 | 0.00 | 81 | 1009.3 |
| 20260509071326 | 31 | 280 | 2.0 | 4.0 | 0.00 | 0.00 | 0.00 | 82 | 1009.5 |
| 20260509070826 | 31 | 279 | 2.0 | 3.0 | 0.00 | 0.00 | 0.00 | 82 | 1009.4 |
| 20260509070324 | 31 | 257 | 2.0 | 3.0 | 0.00 | 0.00 | 0.00 | 82 | 1009.5 |
| 20260509065824 | 30 | 257 | 2.0 | 3.0 | 0.00 | 0.00 | 0.00 | 82 | 1009.5 |
| 20260509065329 | 30 | 257 | 2.0 | 3.0 | 0.00 | 0.00 | 0.00 | 82 | 1009.5 |
| 20260509064824 | 30 | 257 | 1.0 | 2.0 | 0.00 | 0.00 | 0.00 | 81 | 1009.5 |
| 20260509064324 | 30 | 257 | 1.0 | 2.0 | 0.00 | 0.00 | 0.00 | 81 | 1009.5 |
| 20260509063824 | 30 | 257 | 1.0 | 2.0 | 0.00 | 0.00 | 0.00 | 82 | 1009.5 |
| 20260509063324 | 30 | 257 | 1.0 | 2.0 | 0.00 | 0.00 | 0.00 | 81 | 1009.6 |
| 20260509062822 | 30 | 257 | 1.0 | 2.0 | 0.00 | 0.00 | 0.00 | 81 | 1009.7 |
| 20260509062322 | 30 | 257 | 1.0 | 2.0 | 0.00 | 0.00 | 0.00 | 81 | 1009.7 |
| 20260509061822 | 31 | 257 | 1.0 | 2.0 | 0.00 | 0.00 | 0.00 | 81 | 1009.8 |
| 20260509061323 | 31 | 257 | 1.0 | 3.0 | 0.00 | 0.00 | 0.00 | 80 | 1009.7 |
| 20260509060546 | 31 | 257 | 1.0 | 3.0 | 0.00 | 0.00 | 0.00 | 79 | 1009.7 |
| 20260509055814 | 31 | 257 | 0.0 | 2.0 | 0.00 | 0.00 | 0.00 | 79 | 1009.7 |
| 20260509055311 | 31 | 257 | 1.0 | 3.0 | 0.00 | 0.00 | 0.00 | 79 | 1009.8 |
| 20260509054811 | 31 | 257 | 1.0 | 3.0 | 0.00 | 0.00 | 0.00 | 79 | 1009.7 |
| 20260509054310 | 31 | 257 | 1.0 | 3.0 | 0.00 | 0.00 | 0.00 | 79 | 1009.8 |
| 20260509053808 | 30 | 257 | 1.0 | 3.0 | 0.00 | 0.00 | 0.00 | 79 | 1009.8 |
| 20260509053527 | 30 | 257 | 1.0 | 2.0 | 0.00 | 0.00 | 0.00 | 79 | 1009.7 |
| 20260509053031 | 31 | 257 | 1.0 | 2.0 | 0.00 | 0.00 | 0.00 | 78 | 1009.8 |
| 20260509052301 | 31 | 257 | 1.0 | 2.0 | 0.00 | 0.00 | 0.00 | 78 | 1009.8 |
| 20260509051801 | 31 | 257 | 2.0 | 2.0 | 0.00 | 0.00 | 0.00 | 78 | 1009.7 |
| 20260509051521 | 31 | 257 | 1.0 | 2.0 | 0.00 | 0.00 | 0.00 | 77 | 1009.7 |
| 20260509051032 | 31 | 257 | 1.0 | 2.0 | 0.00 | 0.00 | 0.00 | 77 | 1009.7 |
| 20260509050302 | 32 | 257 | 0.0 | 2.0 | 0.00 | 0.00 | 0.00 | 76 | 1009.6 |
| 20260509050029 | 32 | 257 | 1.0 | 2.0 | 0.00 | 0.00 | 0.00 | 76 | 1009.6 |
| 20260509045300 | 31 | 257 | 1.0 | 2.0 | 0.00 | 0.00 | 0.00 | 76 | 1009.6 |
| 20260509044757 | 31 | 257 | 1.0 | 2.0 | 0.00 | 0.00 | 0.00 | 76 | 1009.6 |
| 20260509044255 | 32 | 257 | 1.0 | 2.0 | 0.00 | 0.00 | 0.00 | 76 | 1009.6 |
| 20260509043754 | 32 | 257 | 0.0 | 2.0 | 0.00 | 0.00 | 0.00 | 75 | 1009.6 |
| 20260509043249 | 32 | 257 | 0.0 | 2.0 | 0.00 | 0.00 | 0.00 | 75 | 1009.5 |
| 20260509043010 | 32 | 257 | 1.0 | 2.0 | 0.00 | 0.00 | 0.00 | 75 | 1009.4 |
| 20260509042507 | 32 | 257 | 1.0 | 2.0 | 0.00 | 0.00 | 0.00 | 75 | 1009.4 |
| 20260509041743 | 32 | 257 | 1.0 | 2.0 | 0.00 | 0.00 | 0.00 | 75 | 1009.4 |
| 20260509041244 | 32 | 257 | 1.0 | 2.0 | 0.00 | 0.00 | 0.00 | 75 | 1009.4 |
| 20260509040744 | 33 | 257 | 1.0 | 2.0 | 0.00 | 0.00 | 0.00 | 74 | 1009.5 |
| 20260509040243 | 33 | 257 | 1.0 | 2.0 | 0.00 | 0.00 | 0.00 | 72 | 1009.4 |
| 20260509035742 | 34 | 257 | 1.0 | 2.0 | 0.00 | 0.00 | 0.00 | 73 | 1009.4 |
| 20260509035242 | 33 | 257 | 1.0 | 2.0 | 0.00 | 0.00 | 0.00 | 71 | 1009.4 |
| 20260509034743 | 33 | 257 | 1.0 | 3.0 | 0.00 | 0.00 | 0.00 | 72 | 1009.3 |
| 20260509034240 | 33 | 257 | 2.0 | 3.0 | 0.00 | 0.00 | 0.00 | 72 | 1009.4 |
| 20260509033738 | 33 | 257 | 2.0 | 3.0 | 0.00 | 0.00 | 0.00 | 72 | 1009.5 |
| 20260509033236 | 33 | 257 | 2.0 | 3.0 | 0.00 | 0.00 | 0.00 | 72 | 1009.5 |
| 20260509032734 | 33 | 257 | 2.0 | 3.0 | 0.00 | 0.00 | 0.00 | 71 | 1009.5 |
| 20260509032234 | 34 | 257 | 1.0 | 3.0 | 0.00 | 0.00 | 0.00 | 71 | 1009.4 |
| 20260509031734 | 35 | 257 | 2.0 | 4.0 | 0.00 | 0.00 | 0.00 | 70 | 1009.4 |
| 20260509031234 | 35 | 257 | 3.0 | 6.0 | 0.00 | 0.00 | 0.00 | 68 | 1009.4 |
| 20260509030732 | 35 | 257 | 3.0 | 7.0 | 0.00 | 0.00 | 0.00 | 68 | 1009.3 |
| 20260509030235 | 35 | 273 | 3.0 | 7.0 | 0.00 | 0.00 | 0.00 | 70 | 1009.4 |
| 20260509025731 | 34 | 272 | 2.0 | 7.0 | 0.00 | 0.00 | 0.00 | 73 | 1009.4 |
| 20260509025230 | 33 | 243 | 2.0 | 5.0 | 0.00 | 0.00 | 0.00 | 74 | 1009.4 |
| 20260509024729 | 33 | 267 | 2.0 | 4.0 | 0.00 | 0.00 | 0.00 | 74 | 1009.3 |
| 20260509024229 | 33 | 264 | 2.0 | 4.0 | 0.00 | 0.00 | 0.00 | 73 | 1009.3 |
| 20260509023953 | 33 | 239 | 2.0 | 4.0 | 0.00 | 0.00 | 0.00 | 72 | 1009.3 |
| 20260509023225 | 34 | 239 | 2.0 | 4.0 | 0.00 | 0.00 | 0.00 | 72 | 1009.3 |